Regional Weather Roundup
Issued by NWS

Home | Current Version | Previous Version | Text Only | Print | Product List | Glossary On
Versions: 1 2 3 4 5 6 7 8 9 10 11 12 13 14 15 16 17 18 19 20 21 22 23 24 25 26 27
000
ASUS46 KSEW 220310
RWRWA

WASHINGTON REGIONAL WEATHER ROUNDUP
NATIONAL WEATHER SERVICE SEATTLE WA
800 PM PDT SAT OCT 21 2017

NOTE:"FAIR" INDICATES FEW OR NO CLOUDS BELOW 12,000 FEET WITH NO
SIGNIFICANT WEATHER AND/OR OBSTRUCTIONS TO VISIBILITY.

WAZ507-509-555>559-220400-
SEATTLE, TACOMA, EVERETT, AND VICINITY

CITY           SKY/WX    TMP DP  RH WIND       PRES   REMARKS
EVERETT        LGT RAIN  53  52  96 SE15G22   29.59F
BOEING FIELD   LGT RAIN  58 N/A N/A S15G23    29.61S
RENTON         RAIN      58  57  97 SE10G21   29.61S
SEATAC AIRPORT RAIN      57  55  93 S16       29.62R FOG
JBLM-MCCHORD   LGT RAIN  57  57 100 S16G25    29.63S
PUYALLUP       RAIN      57  57 100 S10G18    29.65S
BREMERTON      RAIN      54  54 100 S16G24    29.59F FOG
JBLM-FT LEWIS  RAIN      58  58 100 S21G28    29.63S
TACOMA NARROWS RAIN      56  56 100 S21G31    29.62S FOG
$$

WAZ001-503-506-510-514-515-220400-
NORTH INTERIOR

CITY           SKY/WX    TMP DP  RH WIND       PRES   REMARKS
BELLINGHAM     LGT RAIN  54  51  90 S14G30    29.53F
FRIDAY HARBOR  LGT RAIN  50  50 100 S16G25    29.55S
EASTSOUND      LGT RAIN  52  50  93 S15G24    29.52F
PORT ANGELES   LGT RAIN  49  49 100 CALM      29.54S FOG
EDIZ HOOK      LGT RAIN  48  47  97 E8        29.54S
PORT TOWNSEND  CLOUDY    52  50  93 SE5G12    29.57S
NAS WHIDBEY    RAIN      53  48  83 SE18      29.60S
ARLINGTON      LGT RAIN  52  50  93 SE5       29.60F
BURLINGTON     CLOUDY    52  50  93 E7        29.59F FOG
$$

WAZ020-022-039-040-504-511-512-220400-
SOUTHWEST INTERIOR

CITY           SKY/WX    TMP DP  RH WIND       PRES   REMARKS
SHELTON        RAIN      59  57  93 SW21G31   29.59S FOG
OLYMPIA        RAIN      57  56  96 S14       29.64S FOG
CHEHALIS       CLOUDY    57  57 100 S14       29.68F FOG
KELSO          RAIN      58  57  97 S10G17    29.77R
VANCOUVER      LGT RAIN  60  59  96 S12G20    29.83R
SCAPPOOSE, OR  LGT RAIN  59  57  93 VRB3      29.79R
PORTLAND, OR   LGT RAIN  60  60 100 S15G23    29.84R
$$

WAZ021-516-517-220400-
WASHINGTON COAST

CITY           SKY/WX    TMP DP  RH WIND       PRES   REMARKS
FORKS          LGT RAIN  57  56  96 SW14G24   29.59R
HOQUIAM        RAIN      57  57 100 SW28      29.65R FOG
ASTORIA, OR    RAIN      59  57  93 S24G39    29.70F FOG
$$

WAZ019-023-024-040-567>569-220400-
CASCADE MOUNTAINS AND COLUMBIA GORGE

CITY           SKY/WX    TMP DP  RH WIND       PRES   REMARKS
STAMPEDE PASS  HVY RAIN  33  32  96 VRB3      29.70F FOG
TROUTDALE, OR  LGT RAIN  62  57  83 S20G29    29.84R
HOOD RIVER, OR RAIN      43  41  93 CALM      29.84F
THE DALLES, OR CLOUDY    47  46  97 CALM      29.86F
$$

WAZ026-027-041>044-520-521-220400-
EAST SLOPES

CITY           SKY/WX    TMP DP  RH WIND       PRES   REMARKS
OMAK           RAIN      40  40 100 SE5       29.78F
WENATCHEE      LGT RAIN  37  37 100 W5        29.78F
ELLENSBURG     LGT RAIN  44  41  89 NE3       29.76F
YAKIMA         LGT RAIN  48  45  89 CALM      29.79F
SUNNYSIDE ARPT CLOUDY    48  45  89 SE8       29.79F
YAKIMA TC      LGT RAIN  44  41  91 CALM      29.75F
$$

WAZ028-034-035-220400-
COLUMBIA BASIN

CITY           SKY/WX    TMP DP  RH WIND       PRES   REMARKS
EPHRATA        CLOUDY    47  42  83 S10       29.77F
MOSES LAKE     CLOUDY    47  45  93 S12       29.78F
PASCO          CLOUDY    54  48  80 SE5       29.81F
RICHLAND ARPT  CLOUDY    51  50  98 S3        29.82F
HERMISTON, OR  CLOUDY    51  51 100 N3        29.84R
$$

WAZ036>038-220400-
NORTHEAST WASHINGTON

CITY           SKY/WX    TMP DP  RH WIND       PRES   REMARKS
SPOKANE GEIGER LGT RAIN  41  41 100 SE18G26   29.82F
SPOKANE FELTS  LGT RAIN  43  39  86 VRB5      29.85F
FAIRCHILD AFB  LGT RAIN  41  41 100 S18G25    29.80F
COEURDALENE,ID RAIN      40  38  93 S8        29.88F
DEER PARK      RAIN      40  39  97 E3        29.85F
$$

WAZ029>033-220400-
SOUTHEAST WASHINGTON

CITY           SKY/WX    TMP DP  RH WIND       PRES   REMARKS
PULLMAN        RAIN      41  38  89 SE18G26   29.91F FOG
LEWISTON, ID   LGT RAIN  46  42  86 E3        29.95F
WALLA WALLA    CLOUDY    59  45  59 S23G29    29.85R
PENDLETON, OR  CLOUDY    55  44  66 MISG      29.87S
$$




USA.gov is the U.S. government's official web portal to all federal, state and local government web resources and services.